Location: Bakhuizen
(52.8696°N, 5.4575°E)
Time: 20:15:57
(UTC+00:00)

USA 215 - Pass Details

Date: 11 May 2021
Orbit: 1100 x 1107 km, 123.0° (Epoch: 14 June)

Event Time Altitude Azimuth Distance (km) Brightness Sun altitude
Exits shadow 23:13:58 12° 124° (SE) 2,772 5.0 -18.9°
Maximum altitude 23:20:01 76° 210° (SSW) 1,134 3.2 -18.9°
Drops below altitude 10° 23:26:35 10° 297° (WNW) 2,966 5.9 -19.0°
Sets 23:29:05 0° 299° (WNW) 3,926 6.6 -19.0°
